Location: Champseau
(45.8333°N, 1.7667°E)
Time: 11:38:42
(UTC+00:00)

ITUPSAT 1 - Pass Details

Date: 03 December 2021
Orbit: 701 x 712 km, 98.6° (Epoch: 19 January)

Event Time Altitude Azimuth Distance (km) Brightness Sun altitude
Rises 06:34:27 0° 162° (SSE) 3,085 ? -7.2°
Reaches altitude 10° 06:36:41 10° 161° (SSE) 2,173 ? -6.9°
Maximum altitude 06:41:27 83° 75° (ENE) 721 ? -6.1°
Drops below altitude 10° 06:46:17 10° 347° (NNW) 2,197 ? -5.4°
Sets 06:48:33 0° 347° (NNW) 3,122 ? -5.0°
